Weather History for KLGA - January, 2015

Change the Weather History Date:

Friday, January 16, 2015

  Actual Average Record
Temperature  
Mean Temperature 31 °F 33 °F  
Max Temperature 42 °F 39 °F 59 °F (1953)
Min Temperature 20 °F 26 °F 2 °F (1994)
Degree Days  
Heating Degree Days 34 32  
Month to date heating degree days 569 508  
Since 1 July heating degree days 2072 2114  
Cooling Degree Days 0 0  
Month to date cooling degree days 0 0  
Year to date cooling degree days 0 0  
Moisture  
Dew Point 14 °F    
Average Humidity 44    
Maximum Humidity 53    
Minimum Humidity 35    
Precipitation  
Precipitation 0.00 in 0.10 in 0.90 in (1997)
Month to date precipitation 1.54 1.67  
Year to date precipitation 1.54 1.67  
Snow  
Snow 0.00 in 0.30 in 4.60 in (1965)
Month to date snowfall 2.8 3.9  
Since 1 July snowfall 4.5 9.4  
Snow Depth 0.00 in    
Sea Level Pressure  
Sea Level Pressure 29.94 in    
Wind  
Wind Speed 18 mph (WNW)    
Max Wind Speed 37 mph    
Max Gust Speed 46 mph    
Visibility 10 miles    
Events      
T = Trace of Precipitation, MM = Missing Value Source: NWS Daily Summary

Daily Weather History Graph

Daily Weather History Graph

Search for Another Location

Airport or City:

Trip Planner

Search our weather history database for the weather conditions in past years. The results will help you decide how hot, cold, wet, or windy it might be!

Date:

Astronomy

Jan. 16, 2015 Rise Set
Actual Time 7:17 AM EST 4:53 PM EST
Civil Twilight 6:47 AM EST 5:23 PM EST
Nautical Twilight 6:13 AM EST 5:57 PM EST
Astronomical Twilight 5:40 AM EST 6:30 PM EST
Moon 3:09 AM EST (1/16) 1:27 PM EST (1/16)
Length of Visible Light 10h 36m
Length of Day
9h 36m
Waning Crescent, 19% of the Moon is Illuminated
Jan 16
Waning Crescent
Jan 20
New
Jan 26
First Quarter
Feb 3
Full
Feb 11
Last Quarter

Hourly Weather History & Observations

Time (EST) Temp. Windchill Dew Point Humidity Pressure Visibility Wind Dir Wind Speed Gust Speed Precip Events Conditions
12:51 AM 32.0 °F 21.6 °F 15.1 °F 50% 29.89 in 10.0 mi SW 15.0 mph - N/A   Clear
1:51 AM 32.0 °F 23.0 °F 15.1 °F 50% 29.88 in 10.0 mi WSW 11.5 mph - N/A   Clear
2:51 AM 30.2 °F 20.2 °F 15.8 °F 55% 29.87 in 10.0 mi SW 12.7 mph - N/A   Clear
3:51 AM 30.9 °F 22.8 °F 15.1 °F 52% 29.84 in 10.0 mi WSW 9.2 mph 19.6 mph N/A   Mostly Cloudy
4:51 AM 32.0 °F 23.0 °F 16.0 °F 52% 29.83 in 10.0 mi SW 11.5 mph - N/A   Scattered Clouds
5:51 AM 32.0 °F 23.6 °F 16.0 °F 52% 29.83 in 10.0 mi WSW 10.4 mph - N/A   Scattered Clouds
6:51 AM 33.1 °F 23.4 °F 17.1 °F 52% 29.84 in 10.0 mi West 13.8 mph 24.2 mph N/A   Partly Cloudy
7:51 AM 33.1 °F 23.0 °F 17.1 °F 52% 29.85 in 10.0 mi WSW 15.0 mph 21.9 mph N/A   Mostly Cloudy
8:51 AM 34.0 °F 23.8 °F 18.0 °F 52% 29.87 in 10.0 mi West 16.1 mph 23.0 mph N/A   Mostly Cloudy
9:51 AM 36.0 °F 27.5 °F 19.0 °F 50% 29.88 in 10.0 mi WSW 12.7 mph 23.0 mph N/A   Scattered Clouds
10:51 AM 37.0 °F 28.5 °F 19.0 °F 48% 29.85 in 10.0 mi West 13.8 mph 23.0 mph N/A   Partly Cloudy
11:51 AM 39.0 °F 29.6 °F 19.0 °F 45% 29.82 in 10.0 mi West 18.4 mph 25.3 mph N/A   Scattered Clouds
12:51 PM 42.1 °F 33.3 °F 17.1 °F 37% 29.81 in 10.0 mi WNW 19.6 mph 28.8 mph N/A   Scattered Clouds
1:51 PM 41.0 °F 30.2 °F 17.1 °F 38% 29.81 in 10.0 mi WNW 27.6 mph 35.7 mph N/A   Mostly Cloudy
2:51 PM 37.9 °F 28.2 °F 19.0 °F 47% 29.86 in 10.0 mi NW 18.4 mph 25.3 mph N/A   Mostly Cloudy
3:51 PM 35.1 °F 22.2 °F 17.1 °F 48% 29.90 in 10.0 mi NW 27.6 mph 33.4 mph N/A   Scattered Clouds
4:51 PM 33.1 °F 20.9 °F 14.0 °F 46% 29.95 in 10.0 mi NNW 21.9 mph 34.5 mph N/A   Scattered Clouds
5:51 PM 28.9 °F 16.5 °F 12.0 °F 49% 30.03 in 10.0 mi NNW 18.4 mph 33.4 mph N/A   Scattered Clouds
6:51 PM 28.0 °F 11.8 °F 5.0 °F 38% 30.07 in 10.0 mi NW 32.2 mph 46.0 mph N/A   Scattered Clouds
7:51 PM 26.1 °F 9.8 °F 3.0 °F 37% 30.11 in 10.0 mi NW 28.8 mph 39.1 mph N/A   Clear
8:51 PM 24.1 °F 7.4 °F 3.9 °F 42% 30.15 in 10.0 mi NNW 27.6 mph 33.4 mph N/A   Clear
9:51 PM 21.9 °F 6.9 °F 5.0 °F 48% 30.19 in 10.0 mi NW 19.6 mph 27.6 mph N/A   Clear
10:51 PM 21.0 °F 6.2 °F 5.0 °F 50% 30.22 in 10.0 mi NW 18.4 mph - N/A   Clear
11:51 PM 19.9 °F 5.2 °F 3.9 °F 50% 30.23 in 10.0 mi WNW 17.3 mph - N/A   Clear